Location: Poprad
(49.0500°N, 20.3000°E)
Time: 18:10:09
(UTC+02:00)

ITUPSAT 1 - Pass Details

Date: 24 April 2024
Orbit: 694 x 707 km, 98.5° (Epoch: 20 May)

Event Time Altitude Azimuth Distance (km) Brightness Sun altitude
Rises 21:13:02 0° 33° (NNE) 3,085 ? -13.3°
Reaches altitude 10° 21:17:03 10° 68° (ENE) 2,158 ? -13.8°
Enters shadow 21:18:30 11° 86° (E) 2,063 ? -13.9°
